Weather History for Logan, UT

Change the Weather History Date:

Tuesday, July 23, 2013

  Actual Average Record
Temperature  
Mean Temperature 75 °F -  
Max Temperature 97 °F 88 °F 100 °F (1980)
Min Temperature 54 °F 55 °F 45 °F (1978)
Cooling Degree Days 10    
Growing Degree Days 25 (Base 50)    
Moisture  
Dew Point 35 °F    
Average Humidity 32    
Maximum Humidity 69    
Minimum Humidity 5    
Precipitation  
Precipitation 0.00 in - - ()
Sea Level Pressure  
Sea Level Pressure 29.90 in    
Wind  
Wind Speed 3 mph (NW)    
Max Wind Speed 6 mph    
Max Gust Speed -    
Visibility 10 miles    
Events      
Averages and records for this station are not official NWS values.
T = Trace of Precipitation, MM = Missing Value Source: NWS Daily Summary

Daily Weather History Graph

Daily Weather History Graph

Search for Another Location

Airport:

Trip Planner

Search our weather history database for the weather conditions in past years. The results will help you decide how hot, cold, wet, or windy it might be!

Date:

Astronomy

Jul. 23, 2013 Rise Set
Actual Time 6:13 AM MDT 8:54 PM MDT
Civil Twilight 5:40 AM MDT 9:26 PM MDT
Nautical Twilight 5:00 AM MDT 10:06 PM MDT
Astronomical Twilight 4:13 AM MDT 10:52 PM MDT
Moon 9:22 PM MDT (7/23) 7:28 AM MDT (7/23)
Length of Visible Light 15h 45m
Length of Day
14h 41m
Full, 99% of the Moon is Illuminated
Jul 23
Full
Jul 29
Last Quarter
Aug 6
New
Aug 14
First Quarter
Aug 20
Full

Hourly Weather History & Observations

Time (MDT) Temp. Dew Point Humidity Pressure Visibility Wind Dir Wind Speed Gust Speed Precip Events Conditions
12:51 AM 66.0 °F 41.0 °F 40% 29.86 in 10.0 mi SSE 4.6 mph - N/A   Clear
1:51 AM 59.0 °F 46.0 °F 62% 29.88 in 10.0 mi West 4.6 mph - N/A   Clear
2:51 AM 61.0 °F 44.1 °F 54% 29.88 in 10.0 mi Calm Calm - N/A   Clear
3:51 AM 55.0 °F 44.1 °F 67% 29.89 in 10.0 mi North 3.5 mph - N/A   Clear
4:51 AM 57.9 °F 45.0 °F 62% 29.88 in 10.0 mi WNW 4.6 mph - N/A   Clear
5:51 AM 54.0 °F 44.1 °F 69% 29.91 in 10.0 mi Calm Calm - N/A   Clear
6:51 AM 55.9 °F 42.1 °F 60% 29.92 in 10.0 mi Calm Calm - N/A   Clear
7:51 AM 62.1 °F 41.0 °F 46% 29.94 in 10.0 mi Calm Calm - N/A   Clear
8:51 AM 64.9 °F 41.0 °F 42% 29.97 in 10.0 mi WNW 4.6 mph - N/A   Clear
9:51 AM 72.0 °F 35.1 °F 26% 29.98 in 10.0 mi Calm Calm - N/A   Clear
10:51 AM 78.1 °F 28.0 °F 16% 29.96 in 10.0 mi Calm Calm - N/A   Clear
11:51 AM 81.0 °F 30.9 °F 16% 29.96 in 10.0 mi SSE 3.5 mph - N/A   Clear
12:51 PM 87.1 °F 34.0 °F 15% 29.94 in 10.0 mi Variable 4.6 mph - N/A   Clear
1:51 PM 90.0 °F 32.0 °F 13% 29.93 in 10.0 mi WNW 5.8 mph - N/A   Clear
2:51 PM 91.9 °F 15.1 °F 6% 29.90 in 10.0 mi Calm Calm - N/A   Clear
3:51 PM 96.1 °F 19.0 °F 6% 29.88 in 10.0 mi NNE 5.8 mph - N/A   Clear
4:51 PM 96.1 °F 19.9 °F 6% 29.86 in 10.0 mi Variable 4.6 mph - N/A   Clear
5:51 PM 95.0 °F 15.1 °F 5% 29.85 in 10.0 mi North 4.6 mph - N/A   Clear
6:51 PM 93.9 °F 19.0 °F 7% 29.84 in 10.0 mi NW 4.6 mph - N/A   Clear
7:51 PM 88.0 °F 37.0 °F 16% 29.85 in 10.0 mi WSW 5.8 mph - N/A   Clear
8:51 PM 80.1 °F 42.1 °F 26% 29.87 in 10.0 mi Calm Calm - N/A   Clear
9:51 PM 75.9 °F 35.1 °F 23% 29.88 in 10.0 mi East 4.6 mph - N/A   Clear
10:51 PM 64.9 °F 42.1 °F 43% 29.91 in 10.0 mi Calm Calm - N/A   Clear
11:51 PM 64.0 °F 39.0 °F 40% 29.91 in 10.0 mi Calm Calm - N/A   Clear